Regional Weather Roundup
Issued by NWS

Home | Current Version | Previous Version | Text Only | Print | Product List | Glossary On
Versions: 1 2 3 4 5 6 7 8 9 10 11 12 13 14 15 16 17 18 19 20 21 22 23 24 25 26 27 28 29 30 31 32 33 34 35 36 37 38 39 40 41 42 43 44 45 46 47 48 49 50
000
ASUS44 KFWD 162315
RWRTX
NORTH TEXAS HOURLY WEATHER ROUNDUP
NATIONAL WEATHER SERVICE FORT WORTH TX
600 PM CDT WED AUG 16 2017

NOTE: "FAIR" INDICATES FEW OR NO CLOUDS BELOW 12,000 FEET WITH NO
SIGNIFICANT WEATHER AND/OR OBSTRUCTIONS TO VISIBILITY.

TXZ118-119-170000-
DALLAS/FORT WORTH METROPLEX

CITY           SKY/WX    TMP DP  RH WIND       PRES   REMARKS
DFW AIRPORT    PTSUNNY   94  73  50 S16       29.84F HX 103
DALLAS LOVE    CLOUDY    96  72  45 S12       29.85F HX 104
FTW MEACHAM    SUNNY     94  76  55 S14       29.85F HX 106
DAL-EXECUTIVE  CLOUDY    94  73  50 VRB7      29.86F HX 103
FTW-ALLIANCE   MOSUNNY   93  76  57 S7        29.85F HX 105
FTW-NAS-JRB    SUNNY     95  73  48 S13       29.85F HX 104
FTW-SPINKS     MOSUNNY   97  72  44 SE13G21   29.87F HX 105
ARLINGTON      CLOUDY    95  73  48 S13       29.86F HX 104
GRAND PRAIRIE  SUNNY     93  70  46 S6        29.87F HX  99
ADDISON        MOSUNNY   93  72  49 S14G24    29.87F HX 100
MESQUITE       MOSUNNY   93  72  49 SE10      29.87F HX 100
LANCASTER      CLOUDY    94  72  47 S8        29.87F HX 102
$$

TXZ091>094-102>105-117-120-121-131>134-170000-
NORTH CENTRAL TEXAS

CITY           SKY/WX    TMP DP  RH WIND       PRES   REMARKS
SHRMAN/DENISON CLOUDY    90  74  59 S12       29.88F HX  98
GAINESVILLE    MOSUNNY   90  73  57 SE12      29.89F HX  98
BOWIE          SUNNY     91  75  60 SE12G17   29.87S HX 101
BRIDGEPORT     SUNNY     91  73  54 S10G16    29.88S HX 100
DECATUR        MOSUNNY   91  74  57 S13G18    29.88F HX 100
DENTON         SUNNY     92  75  57 S13       29.86S HX 103
MCKINNEY       PTSUNNY   91  77  63 SE12      29.86F HX 104
BONHAM         CLOUDY    88  73  62 SE8       29.89S HX  96
GREENVILLE     CLOUDY    95  72  46 S12       29.89F HX 103
ROCKWALL       CLOUDY    93  73  52 S12G18    29.88S HX 101
TERRELL        CLOUDY    93  72  50 SE8       29.88F HX 101
WAXAHACHIE     CLOUDY    92  73  52 S7        29.88F HX 100
CLEBURNE       CLOUDY    95  72  46 S12       29.88F HX 103
GRANBURY       SUNNY     96  72  46 S9        29.86F HX 104
$$

TXZ083>090-098>101-113>116-127>130-139>142-154-155-170000-
WESTERN NORTH TEXAS

CITY           SKY/WX    TMP DP  RH WIND       PRES   REMARKS
WICHITA FALLS  MOSUNNY   93  72  50 S13       29.81F HX 101
WF-KICKAPOO    MOSUNNY   95  74  50 S17       29.85F HX 105
VERNON         SUNNY     95  66  38 S8        29.83F HX  98
ABILENE        MOSUNNY   92  72  51 S12       29.88F HX  99
ABILENE-DYESS  SUNNY     94  73  49 S15       29.85F HX 103
GRAHAM         MOSUNNY   94  73  49 SE10      29.83F HX 103
BRECKENRIDGE   MOSUNNY   97  68  38 S12G18    29.85F HX 101
CISCO          MOSUNNY   93  72  49 S14       29.89F HX 100
EASTLAND       MOSUNNY   91  73  54 S13       29.87F HX 100
RANGER         MOSUNNY   91  72  53 S8        29.89S HX  98
MINERAL WELLS  MOSUNNY   90  74  59 S8        29.85F HX  99
STEPHENVILLE   SUNNY     91  70  49 S13G18    29.91S HX  97
COMANCHE       SUNNY     94  71  47 S12G20    29.89F HX 101
BROWNWOOD      LGT RAIN  93  72  49 S12G20    29.88F HX 100
COLEMAN        SUNNY     95  68  41 S14G20    29.89S HX  99
$$

TXZ143>147-156>162-174-175-170000-
CENTRAL TEXAS

CITY           SKY/WX    TMP DP  RH WIND       PRES   REMARKS
WACO           MOSUNNY   95  70  44 S13       29.87S HX 101
WACO-TSTC      SUNNY     95  66  38 S18       29.87F HX  98
WACO-MCGREGOR  MOSUNNY   96  69  41 S14       29.87F HX 102
HILLSBORO      MOSUNNY   95  71  44 SE15      29.88S HX 102
CORSICANA      PTSUNNY   94  71  47 S7        29.89F HX 101
MEXIA          MOSUNNY   97  68  38 S16G26    29.88S HX 102
HEARNE         PTSUNNY   96  73  48 SE12G17   29.88F HX 105
CAMERON        SUNNY     98  69  39 S7        29.87F HX 104
TEMPLE         SUNNY     97  68  38 S16       29.88S HX 102
KILLEEN        PTSUNNY   94  68  42 S14G20    29.88F HX  99
KILLEEN-SKYLRK SUNNY     95  70  44 S13       29.89S HX 101
FORT HOOD      PTSUNNY   96  68  40 S15       29.85F HX 100
HAMILTON       CLOUDY    92  68  44 S13G21    29.91S HX  96
LAMPASAS       SUNNY     96  72  45 S9        29.89S HX 104
$$

TXZ095>097-106>112-122>126-135>138-148>153-164>167-170000-
EAST TEXAS

CITY           SKY/WX    TMP DP  RH WIND       PRES   REMARKS
PARIS          CLOUDY    90  76  63 S10       29.90F HX 101
SULPHUR SPRNGS CLOUDY    91  72  52 S8        29.91F HX  98
MOUNT PLEASANT SUNNY     93  71  49 S8        29.92S HX 100
GILMER         SUNNY     92  73  54 SE8       29.91S HX 101
MINEOLA        SUNNY     93  73  52 SE3       29.90F HX 102
TYLER          MOSUNNY   94  71  47 S14       29.90F HX 101
LONGVIEW       MOSUNNY   94  74  52 S8        29.90F HX 104
MARSHALL         N/A     91  74  57 S8        29.94F HX 101
ATHENS         SUNNY     93  70  46 S8        29.88F HX  99
PALESTINE      MOSUNNY   97  70  41 S9        29.91S HX 103
JACKSONVILLE   SUNNY     93  71  48 S7        29.95S HX 100
HENDERSON      MOSUNNY   93  73  52 S8        29.93F HX 102
CENTER         CLOUDY    94  76  55 S5        29.94F HX 108
LUFKIN         PTSUNNY   93  75  55 S13       29.93S HX 104
$$

SUPPLEMENTAL OBSERVATIONS (NWS FORT WORTH AREA)

CITY           SKY/WX    TMP DP  RH WIND       PRES   REMARKS
DENISON DAM      N/A     90  72  55 S8          N/A  HX  96
CADDO GRASSLND   N/A     91  75  59 S6          N/A  HX 102
PAT MAYSE LAKE   N/A     88  81  79 SE10        N/A  HX 105
GREENVILLE       N/A     91  73  55 S6          N/A  HX 100
CEDAR HILL       N/A     93  70  46 S7G15       N/A  HX  99
LBJ GRASSLAND    N/A     91  73  55 SE12        N/A  HX 100
POSSUM KINGDOM   N/A     95  72  46 S10         N/A  HX 103
GRANBURY         N/A     97  73  46 S12         N/A  HX 107
COMANCHE         N/A     93  70  46 S15         N/A  HX  99
MCGREGOR         N/A     97  66  36 S9G17       N/A  HX 100
TEMPLE           N/A     97  66  36 S12         N/A  HX 100
LAKE LIMESTONE   N/A    100  68  34 S8G20       N/A  HX 106
ATHENS           N/A     95  68  41 S12         N/A  HX  99
$$

SUPPLEMENTAL OBSERVATIONS (NWS NORMAN AREA)

CITY           SKY/WX    TMP DP  RH WIND       PRES   REMARKS
GOODLETT         N/A     96  67  37 S7        29.83S HX 100
ODELL            N/A     93  73  52 SE10      29.84F HX 103
CROWELL          N/A     96  72  45 S12       29.84S HX 105
KNOX CITY        N/A     92  69  46 S8        29.85S HX  97
SEYMOUR          N/A     92  70  49 S7        29.84S HX  97
MILLERS CREEK    N/A     93  72  49 S9          N/A  HX 100
$$

SUPPLEMENTAL OBSERVATIONS (NWS SAN ANGELO AREA)

CITY           SKY/WX    TMP DP  RH WIND       PRES   REMARKS
HASKELL          N/A     93  66  40 S8        29.86R HX  96
THROCKMORTON     N/A     94  73  50 S8        29.86R HX 104
STAMFORD         N/A     95  73  48 S12       29.88R HX 104
CLYDE            N/A     92  73  54 S13       29.91S HX 101
HAMBY            N/A     93  70  46 SW13        N/A  HX  99
IVIE RESERVOIR   N/A     95  72  46 S9          N/A  HX 103
COLORADO BEND    N/A     93  64  38 SE10G20     N/A  HX  95
$$

SUPPLEMENTAL OBSERVATIONS (NWS SHREVEPORT AREA)

CITY           SKY/WX    TMP DP  RH WIND       PRES   REMARKS
CLARKSVILLE      N/A     90  72  55 S9          N/A  HX  96
TEXARKANA        N/A     93  77  59 S2          N/A  HX 107
LINDEN           N/A     93  72  49 S5          N/A  HX 100
CADDO LAKE       N/A     93  77  59 SE2         N/A  HX 107
GILMER           N/A     93  73  52 S6G14       N/A  HX 102
HENDERSON        N/A     93  72  49 S7G15       N/A  HX 100
LUFKIN           N/A     93  73  52 MISG        N/A  HX 102
N SABINE NF      N/A     86  79  79 MISG        N/A  HX  99
S SABINE NF      N/A     86  77  74 S2          N/A  HX  97
$$

SUPPLEMENTAL OBSERVATIONS ARE A COLLECTION OF AUTOMATED INSTRUMENTS
THAT ARE MAINTAINED BY A VARIETY OF FEDERAL AND STATE AGENCIES.
CERTAIN ELEMENTS...SUCH AS HUMIDITY VALUES AND SUSTAINED WIND
SPEEDS...MAY BE APPROXIMATED.





USA.gov is the U.S. government's official web portal to all federal, state and local government web resources and services.